Aeroporto :
LOGIN :

Iscrizione | Disclaimer

   EN    FR    IT 

 










Sommario :    VFR   VFR Marginale   IFR   IFR Intensivo   IFR Molto Intensivo
Visibilità : 
Base nubi : 
>= 8 km
>= 3000ft
5 / 8 km
1000 / 3000 ft
1500m / 5 km
500 / 1000 ft
800 / 1500m
200 / 500 ft
< 800m
< 200 ft
Simboli :   Temporali  Nebbia  Neve Forte  Precipitazioni Forti  Vento > 20 kt
SIGMETs :   Varie  Temporali  Ghiacco  Turbolenza  Onda orograficha  Ceneri Vulcaniche







- Altitudine del aeroporto : 49 ft
- Codice IATA : SEN
- Carte del aeroporto


EGMC - Southend

ULTIMO METAR :
  • 101720Z 28005KT 9999 FEW025 SCT034 07/04 Q1027

METARs OBSOLETI :
  • 101650Z 29005KT 250V320 9999 FEW022 SCT035 08/05 Q1027
  • 101620Z 30005KT 250V320 9999 FEW022 BKN038 08/04 Q1027
  • 101550Z 29006KT 270V330 9999 FEW025 BKN037 08/04 Q1027
  • 101520Z 29005KT 250V330 9999 FEW020 SCT042 08/04 Q1027
  • 101450Z 30008KT 250V330 9999 FEW018 SCT045 09/05 Q1027

TAF TAF EGMC
Valido dal 10 a 18 ore il 11 a 03 ore UTC


101652Z 1018/1103 29006KT 9999 BKN040
PROB30
TEMPO 1019/1101 BKN014
PROB30 1022/1103 6000
Nessun NOTAM noto per questo aeroporto.



MetMap, La meteo Aeronautica in un colpo d'occhio ! - Copyright ORBIFLY Dicembre 2007 - Disclaimer

ORBIFLY MET'MAP TEAM :

Programmazione e sviluppo : Alexandra Zaïnal
Concezione e sviluppo : Baudouin d'Aumeries
Co-Programmazione e sviluppo : Marc-Olivier Méhu
Supporto tecnico e logistico : Manuel Goepfert
Aiuto per la traduzione : Arnaldo La Scala

Contatto : metmap@orbifly.com




FONTI E CREDITI :

   NOAA